This is the latest recevied weather packets stored in our database for station/object SV9TNF-56. If no packets are shown the sender has not sent any weather packets the latest 10 day(s).
| Time | Temp. | Humidity | Pressure | Rain* | Wind** | Luminosity | Snow |
|---|---|---|---|---|---|---|---|
| 1788030419 | 23.89° C | 61% | 1018.6 hPa | 0 mm | 12.07 m/s, 121° | - | - |
| 1788030118 | 23.89° C | 59% | 1018.6 hPa | 0 mm | 14.31 m/s, 144° | - | - |
| 1788029819 | 23.33° C | 59% | 1018.6 hPa | 0 mm | 17.88 m/s, 138° | - | - |
| 1788029518 | 23.89° C | 61% | 1019 hPa | 0 mm | 11.18 m/s, 137° | - | - |
| 1788029218 | 23.89° C | 60% | 1019 hPa | 0 mm | 16.99 m/s, 111° | - | - |
| 1788028918 | 23.89° C | 60% | 1019 hPa | 0 mm | 20.56 m/s, 204° | - | - |
| 1788028618 | 23.89° C | 60% | 1019 hPa | 0 mm | 14.75 m/s, 138° | - | - |
| 1788028319 | 23.89° C | 59% | 1019 hPa | 0 mm | 13.86 m/s, 111° | - | - |
| 1788028018 | 23.89° C | 61% | 1019 hPa | 0 mm | 22.8 m/s, 110° | - | - |
| 1788027718 | 23.89° C | 62% | 1019 hPa | 0 mm | 15.2 m/s, 70° | - | - |
| 1788027418 | 23.89° C | 63% | 1019 hPa | 0 mm | 16.54 m/s, 132° | - | - |
| 1788027118 | 24.44° C | 60% | 1019 hPa | 0 mm | 6.26 m/s, 96° | - | - |
| 1788026818 | 24.44° C | 58% | 1019 hPa | 0 mm | 6.26 m/s, 272° | - | - |
| 1788026517 | 24.44° C | 56% | 1019 hPa | 0 mm | 4.92 m/s, 153° | - | - |
| 1788026217 | 23.89° C | 57% | 1019 hPa | 0 mm | 12.96 m/s, 161° | - | - |
| 1788025917 | 23.89° C | 59% | 1019.3 hPa | 0 mm | 12.96 m/s, 90° | - | - |
| 1788025617 | 23.89° C | 60% | 1019 hPa | 0 mm | 5.36 m/s, 159° | - | - |
| 1788025317 | 23.89° C | 61% | 1019 hPa | 0 mm | 5.36 m/s, 178° | - | - |
| 1788025017 | 23.89° C | 62% | 1019 hPa | 0 mm | 2.24 m/s, 156° | - | - |
| 1788024717 | 23.89° C | 63% | 1019 hPa | 0 mm | 12.96 m/s, 132° | - | - |
| 1788024417 | 23.89° C | 63% | 1019 hPa | 0 mm | 9.83 m/s, 222° | - | - |
| 1788024116 | 23.89° C | 62% | 1019 hPa | 0 mm | 5.81 m/s, 184° | - | - |
| 1788023816 | 23.89° C | 61% | 1018.6 hPa | 0 mm | 15.2 m/s, 263° | - | - |
| 1788023516 | 24.44° C | 59% | 1018.6 hPa | 0 mm | 12.96 m/s, 63° | - | - |
| 1788023216 | 24.44° C | 58% | 1018.6 hPa | 0 mm | 8.05 m/s, 174° | - | - |
* Rain latest hour (hover to see other rain measurements)
** Current wind speed in m/s (hover to see current wind gust speed)